Retour au catalogue

STARLINK-5823

ActifCommunicationsVLEO
NORAD 55786·PAYLOAD·🇺🇸 United States

Lancé Mar 3, 2023 depuis Vandenberg Space Force Base

Loading…

Prochains Passages (prochaines 24 heures)

TLE

FraisSource: CelesTrak SupGP

Époque: Sep 15, 2026, 01:34 UTC

1 55786C 23028AX  26258.06576389  .00655420  00000+0  38965-1 0  2584
2 55786  69.9996  86.7110 0003414 273.3030 300.6304 15.10845432    14

Suivez STARLINK-5823 en temps réel avec AllMySat

Download on the App Store